Other Public Products
Issued by NWS Grand Forks, ND

Home | Current Version | Previous Version | Graphics & Text | Print | Product List | Glossary On
Versions: 1 2 3 4 5 6 7 8 9 10 11 12 13 14 15 16 17 18 19 20 21 22 23 24 25 26 27 28 29 30 31 32 33 34 35 36 37 38 39 40 41 42 43 44 45 46 47 48 49 50
000
FPUS83 KFGF 120831
OPUFGF
PRAIRIE TO PINES WEATHER ROUNDUP
NATIONAL WEATHER SERVICE EASTERN NORTH DAKOTA/GRAND FORKS ND
300 AM CDT SAT JUL 12 2014

 **SATELLITE DATA USED TO AUGMENT SKY COVER AT AUTOMATED STATIONS**
 *****  WEATHER ACROSS EASTERN NORTH DAKOTA  *****

CITY           SKY/WX    TMP DP  RH WIND       PRES   REMARKS
GRAND FORKS    PTCLDY    57  54  89 W7        30.02S
GRAND FORKS AF PTCLDY    58  57  99 W6        30.04S
GRAND CITY NWS   N/A     59 N/A N/A NW3         N/A
BUXTON           N/A     63  61  94 NW3         N/A
DEVILS LAKE    CLEAR     57  52  82 NW5       30.05F
FARGO          PTCLDY    63  58  83 CALM      30.02F
WAHPETON ARPT  PTSUNNY   68  54  60 N7        30.02S
$$

 *****  WEATHER ACROSS CENTRAL AND WESTERN NORTH DAKOTA  *****

CITY           SKY/WX    TMP DP  RH WIND       PRES   REMARKS
JAMESTOWN      MOCLDY    63  56  78 N7        30.06S
BISMARCK       CLOUDY    63  59  87 E5        30.08F
MINOT          CLEAR     57  53  86 NW7       30.08F
MINOT AFB      CLEAR     54  54  99 NW6       30.07F
GARRISON         N/A     58  55  90 NW5       30.09F
WILLISTON      MOCLDY    55  52  89 CALM      30.11F
DICKINSON      MOCLDY    61  56  83 NE6       30.10F
HETTINGER      LGT RAIN  61  58  90 N6        30.12F
$$

 *****  OTHER OBSERVATIONS NORTHEAST NORTH DAKOTA  *****

CITY           SKY/WX    TMP DP  RH WIND       PRES   REMARKS
WALHALLA         N/A     59  55  88 NW7         N/A
LANGDON        FAIR      50  50 100 NW6       30.05F
CAVALIER       FAIR      59  54  82 NW6       30.02S
GRAFTON        FAIR      61  55  82 NW7       30.02S
CANDO          FAIR      50  50 100 W3        30.07S
FORT TOTTEN      N/A     57  56  98 CALM      29.95S
ROLLA          CLOUDY    54  54 100 NW5       30.08F
RUGBY          FAIR      55  55 100 N3        30.06F
 ***** THE ABOVE OBSERVATIONS ARE NON NWS ARE NOT QUALITY
        CONTROLLED AND MAY MIS-REPORT RAIN FOR SNOW...
$$

 *****  OTHER OBSERVATIONS SOUTHEAST NORTH DAKOTA *****

CITY           SKY/WX    TMP DP  RH WIND       PRES   REMARKS
COOPERSTOWN    NOT AVBL
VALLEY CITY    PTSUNNY   61  61 100 N7        30.05F
OAKES          NOT AVBL
GWINNER        MOSUNNY   66  61  82 N7        30.05S
SHEYENNE NWR     N/A     64  56  75 N2        29.95S
BUFFALO          N/A     62  54  76 N8          N/A
WYNDMERE       NOT AVBL
 ***** THE ABOVE OBSERVATIONS ARE NON NWS ARE NOT QUALITY
       CONTROLLED AND MAY MIS-REPORT RAIN FOR SNOW...
$$

  *****  WEATHER ACROSS NORTHERN MINNESOTA  *****

CITY           SKY/WX    TMP DP  RH WIND       PRES   REMARKS
FLAG ISLAND    CLEAR     63  55  77 NW9       29.98S HAZE
WARROAD        CLEAR     57  54  88 W5        30.01S
ROSEAU         CLEAR     57  54  88 CALM      30.00F
HALLOCK        CLEAR     57  54  88 CALM      30.01S
THF RVR FALLS  CLEAR     61  55  82 NW3       30.03S
HALSTAD          N/A     58  54  85 N8          N/A
FOSSTON        CLEAR     54  50  87 CALM      30.04S
BAUDETTE       CLEAR     59  55  87 VRB3      30.00F
WASKISH        PTCLDY    64  57  77 CALM      30.01R
CROOKSTON      PTCLDY    57  54  88 CALM      30.04S
$$
  *****  WEATHER ACROSS CENTRAL AND WEST MINNESOTA  *****

CITY           SKY/WX    TMP DP  RH WIND       PRES   REMARKS
BEMIDJI        CLEAR     55  51  88 W3        30.03R
PARK RAPIDS    PTCLDY    61  55  81 W3        30.03S
WADENA         MOCLDY    63  57  82 N3        30.02S
DETROIT LAKES  PTCLDY    64  57  77 CALM      30.05S
MOORHEAD       PTCLDY    63  63 100 N3        30.03S
FERGUS FALLS   MOCLDY    66  54  63 NE5       30.02S
ELBOW LAKE     FAIR      68  59  73 NE6       30.01
MORRIS MN      CLOUDY    70  63  78 N7        30.00S
STAPLES        MOCLDY    63  57  82 N3        30.02S
WHEATON        CLOUDY    64  57  77 N5        30.04R
$$
  *****  WEATHER ELSEWHERE ACROSS MINNESOTA  *****

CITY           SKY/WX    TMP DP  RH WIND       PRES   REMARKS
DULUTH         PTCLDY    66  64  93 W7        29.98S
INTRNTL FALLS  CLEAR     55  53  93 NW3       29.97F
ELY            CLEAR     55  54  94 CALM      29.98S
CLOQUET        PTCLDY    63  61  94 W6        29.99S FOG
BRAINERD       MOCLDY    69  61  75 N7        30.01S
HIBBING        CLEAR     53  51  93 CALM      29.99S FOG
ALEXANDRIA     CLOUDY    70  58  65 N8        30.03S
SAINT CLOUD    FOG       68  66  94 CALM      29.98S VSB 1/4
MINNEAPOLIS    CLOUDY    72  69  90 S5        29.98F
$$

  *****  WEATHER ACROSS SOUTH DAKOTA  *****

CITY           SKY/WX    TMP DP  RH WIND       PRES   REMARKS
SIOUX FALLS    CLOUDY    73  70  90 SW5       30.04R FOG
BROOKINGS      NOT AVBL
WATERTOWN      MOCLDY    70  62  76 NE7       30.03S
HURON          LGT RAIN  75  71  87 NE3       29.99R
SISSETON         N/A     68  62  81 N7        30.02S
ABERDEEN       CLOUDY    67  60  78 NE7       30.04R
MITCHELL       CLOUDY    76  73  91 S8        30.01F
PIERRE         LGT RAIN  72  65  78 NE9       30.01R
MOBRIDGE       CLOUDY    68  59  73 N12       30.03F
RAPID CITY     CLOUDY    66  58  75 S5        30.11F
$$

  *****  SOME WEATHER IN NEARBY STATES *****

CITY           SKY/WX    TMP DP  RH WIND       PRES   REMARKS
GLASGOW MT     CLEAR     60  54  80 E8        30.12F
GREAT FALLS MT CLEAR     59  52  77 N5        30.17S
CHEYENNE WY    CLOUDY    60  59  96 N9        30.26R
SCOTTSBLUFF NE MOCLDY    61  60  97 NE6       30.16F
OMAHA NE       CLOUDY    75  72  90 N12       30.01R
DES MOINES IA  CLOUDY    74  71  91 NE6       30.00R
DAVENPORT IA   CLOUDY    73  67  81 S8        30.01F
CHICAGO IL     CLOUDY    73  58  59 S9        30.07F
EAU CLAIRE WI  PTCLDY    69  67  93 S5        29.99F
LA CROSSE WI   CLOUDY    71  66  84 E3        30.00F
$$

  *****  SOME NATIONAL WEATHER *****

CITY           SKY/WX    TMP DP  RH WIND       PRES   REMARKS
LA GUARDIA NY  MOCLDY    72  64  76 CALM      30.20F
RALEIGH NC     PTCLDY    68  65  90 CALM      30.22S FOG
ATLANTA GA     PTCLDY    73  70  90 E7        30.17S
NEW ORLEANS LA CLOUDY    75  73  93 CALM      30.11F
OKLAHOMA CITY  MOCLDY    76  63  64 S5        30.12S
ALBUQUERQUE NM PTCLDY    67  56  67 SE8       30.22F
SALT LAKE CITY CLEAR     72  57  59 CALM      30.09S
LOS ANGELES CA MOCLDY    68  62  81 VRB7      29.99F
BOISE ID       CLOUDY    82  42  24 CALM      30.04R
SEATTLE WA     PTCLDY    73  55  53 N5        30.02F
$$

*** WEATHER ACROSS MANITOBA...SASKATCHEWAN AND ONTARIO ***
                ***ONTARIO***

CITY           SKY/WX    TMP DP  RH WIND       PRES   REMARKS
GERALDTON      FOG       61  61 100 W5        29.86S VSB 1
THUNDER BAY    CLEAR     52  50  93 W3        29.91S
SIOUX LOOKOUT  PTCLDY    55  52  88 W3        29.94S
TORONTO        MOCLDY    63  55  77 W3        30.16S
BIG TROUT LK   CLEAR     57  48  72 W13G18    29.72R
PICKLE LAKE    NOT AVBL
DRYDEN         PTCLDY    57  52  82 W5        29.96S
KENORA         CLEAR     61  54  77 NW8       30.00R
$$
                *** MANITOBA***

CITY           SKY/WX    TMP DP  RH WIND       PRES   REMARKS
BRANDON        CLEAR     54  52  94 NW8       30.06F
DAUPHIN        CLEAR     57  52  82 W9        30.01F
ISLAND LAKE    PTCLDY    57  48  72 W10       29.80S
PILOT MOUND      N/A     50  48  93 W3          N/A
THE PAS        PTCLDY    57  50  77 SW8       29.86F
THOMPSON       PTCLDY    48  48 100 SW7       29.73R
WINNIPEG       PTCLDY    54  52  94 W7        30.01F
LYNN LAKE      MOCLDY    50  46  87 W9        29.75S
CHURCHILL      LGT RAIN  46  45  93 NW23G30   29.41S
GILLAM         PTCLDY    54  45  71 W21G33    29.61S
$$
                ***SASKATCHEWAN***

CITY           SKY/WX    TMP DP  RH WIND       PRES   REMARKS
ESTEVAN        CLEAR     52  52 100 NW2       30.10F
KINDERSLEY     CLEAR     52  48  87 S6        30.11F
LLOYDMINSTER   CLEAR     55  50  82 W9        30.04F
PRINCE ALBERT  MOCLDY    59  54  82 W8        29.97S
REGINA         CLEAR     50  48  93 SW7       30.10F



USA.gov is the U.S. government's official web portal to all federal, state and local government web resources and services.